sat.trackr.live / text

‹ back to catalog

STARLINK-31344

NORAD 59171 · 2024-044V

PAYLOAD ACTIVE UNKNOWN

§ Identity

Operator
Country
US
Launch date
2024-03-04
Launch site
AFETR
Launch vehicle
Mass (kg)
RCS (m²)

Purposes: comms

External: N2YO · Heavens-Above · Gunter

§ Orbital elements

Epoch: 2026-05-24T22:30:56.039040Z

Period
94.27 min
Inclination
43.0075°
Eccentricity
0.0001479
Mean motion
15.27569352 rev/d
Perigee alt
482.1 km
Apogee alt
484.1 km
Semi-major
6,861.2 km
B*
9.8665e-5
RAAN
36.6849°
Arg perigee
255.2689°
Mean anomaly
104.7999°
Rev number
12,525

§ Raw data

STARLINK-313441 59171U 24044V   26144.93814860  .00002453  00000+0  98665-4 0  99942 59171  43.0075  36.6849 0001479 255.2689 104.7999 15.27569352125257

JSON: /api/v1/satellites/59171 · /tle

For live sub-satellite position, see the globe view (requires WebGL).

§ Visibility from observer

Set your observer location to see the next 7 days of passes ≥ 10°. The values pass through the URL so the page stays shareable.

No JS? Fill the form by hand. The geolocation button needs JavaScript.